Weather History for Laconia, NH

Change the Weather History Date:

Monday, October 11, 2010

  Actual Average Record
Temperature  
Mean Temperature 50 °F -  
Max Temperature 62 °F 59 °F 75 °F (2001)
Min Temperature 37 °F 38 °F 26 °F (1993)
Degree Days  
Heating Degree Days 16    
Moisture  
Dew Point 34 °F    
Average Humidity 57    
Maximum Humidity 81    
Minimum Humidity 34    
Precipitation  
Precipitation 0.00 in - - ()
Sea Level Pressure  
Sea Level Pressure 29.71 in    
Wind  
Wind Speed 5 mph (WNW)    
Max Wind Speed 16 mph    
Max Gust Speed 24 mph    
Visibility 10 miles    
Events      
Averages and records for this station are not official NWS values.
T = Trace of Precipitation, MM = Missing Value Source: NWS Daily Summary

Daily Weather History Graph

Daily Weather History Graph

Search for Another Location

Airport:

Trip Planner

Search our weather history database for the weather conditions in past years. The results will help you decide how hot, cold, wet, or windy it might be!

Date:

Astronomy

Oct. 11, 2010 Rise Set
Actual Time 6:54 AM EDT 6:09 PM EDT
Civil Twilight 6:26 AM EDT 6:37 PM EDT
Nautical Twilight 5:52 AM EDT 7:11 PM EDT
Astronomical Twilight 5:19 AM EDT 7:44 PM EDT
Moon 11:38 AM EDT (10/11) 8:33 PM EDT (10/11)
Length of Visible Light 12h 11m
Length of Day
11h 14m
Waxing Crescent, 19% of the Moon is Illuminated
Oct 11
Waxing Crescent
Oct 14
First Quarter
Oct 22
Full
Oct 30
Last Quarter
Nov 6
New

Hourly Weather History & Observations

Time (EDT) Temp. Windchill Dew Point Humidity Pressure Visibility Wind Dir Wind Speed Gust Speed Precip Events Conditions
12:15 AM 46.4 °F - 32.0 °F 57% 29.65 in 10.0 mi Calm Calm - N/A   Clear
12:35 AM 44.6 °F - 32.0 °F 61% 29.65 in 10.0 mi Calm Calm - N/A   Clear
12:55 AM 44.6 °F - 33.8 °F 66% 29.64 in 10.0 mi Calm Calm - N/A   Clear
1:15 AM 42.8 °F - 33.8 °F 70% 29.65 in 10.0 mi Calm Calm - N/A   Clear
1:35 AM 42.8 °F - 33.8 °F 70% 29.65 in 10.0 mi Calm Calm - N/A   Clear
1:55 AM 42.8 °F - 33.8 °F 70% 29.65 in 10.0 mi Calm Calm - N/A   Clear
2:15 AM 42.8 °F 38.6 °F 32.0 °F 66% 29.65 in 10.0 mi West 6.9 mph - N/A   Clear
2:35 AM 46.4 °F 42.9 °F 32.0 °F 57% 29.66 in 10.0 mi West 6.9 mph - N/A   Clear
2:55 AM 44.6 °F 43.1 °F 32.0 °F 61% 29.66 in 10.0 mi West 3.5 mph - N/A   Clear
3:15 AM 42.8 °F 40.1 °F 32.0 °F 66% 29.66 in 10.0 mi WSW 4.6 mph - N/A   Clear
3:35 AM 42.8 °F 39.3 °F 33.8 °F 70% 29.66 in 10.0 mi WSW 5.8 mph - N/A   Clear
3:55 AM 42.8 °F 41.1 °F 33.8 °F 70% 29.66 in 10.0 mi WSW 3.5 mph - N/A   Clear
4:15 AM 41.0 °F 39.0 °F 33.8 °F 76% 29.66 in 10.0 mi WSW 3.5 mph - N/A   Clear
4:35 AM 42.8 °F 40.1 °F 33.8 °F 70% 29.67 in 10.0 mi WSW 4.6 mph - N/A   Clear
4:55 AM 42.8 °F 39.3 °F 33.8 °F 70% 29.67 in 10.0 mi WSW 5.8 mph - N/A   Clear
5:15 AM 42.8 °F 41.1 °F 33.8 °F 70% 29.68 in 10.0 mi WSW 3.5 mph - N/A   Clear
5:35 AM 39.2 °F - 30.2 °F 70% 29.68 in 10.0 mi Calm Calm - N/A   Clear
5:55 AM 39.2 °F - 32.0 °F 75% 29.69 in 10.0 mi Calm Calm - N/A   Clear
6:15 AM 41.0 °F - 33.8 °F 76% 29.70 in 10.0 mi Calm Calm - N/A   Clear
6:35 AM 37.4 °F - 30.2 °F 75% 29.70 in 10.0 mi Calm Calm - N/A   Clear
6:55 AM 39.2 °F - 33.8 °F 81% 29.70 in 10.0 mi Calm Calm - N/A   Clear
7:15 AM 39.2 °F - 33.8 °F 81% 29.71 in 10.0 mi Calm Calm - N/A   Clear
7:35 AM 39.2 °F - 33.8 °F 81% 29.72 in 10.0 mi Calm Calm - N/A   Clear
7:55 AM 42.8 °F 41.1 °F 35.6 °F 76% 29.72 in 10.0 mi West 3.5 mph - N/A   Clear
8:15 AM 46.4 °F 43.5 °F 37.4 °F 71% 29.72 in 10.0 mi West 5.8 mph - N/A   Clear
8:35 AM 48.2 °F - 37.4 °F 66% 29.73 in 10.0 mi WSW 11.5 mph - N/A   Clear
8:55 AM 51.8 °F - 37.4 °F 58% 29.73 in 10.0 mi WSW 9.2 mph - N/A   Clear
9:15 AM 53.6 °F - 37.4 °F 54% 29.73 in 10.0 mi West 8.1 mph - N/A   Clear
9:35 AM 53.6 °F - 37.4 °F 54% 29.74 in 10.0 mi West 6.9 mph - N/A   Clear
9:55 AM 53.6 °F - 35.6 °F 51% 29.74 in 10.0 mi WNW 11.5 mph 19.6 mph N/A   Partly Cloudy
10:15 AM 53.6 °F - 35.6 °F 51% 29.74 in 10.0 mi NW 12.7 mph - N/A   Partly Cloudy
10:35 AM 55.4 °F - 35.6 °F 47% 29.74 in 10.0 mi WNW 11.5 mph 18.4 mph N/A   Partly Cloudy
10:55 AM 55.4 °F - 35.6 °F 47% 29.74 in 10.0 mi WNW 16.1 mph - N/A   Clear
11:15 AM 55.4 °F - 35.6 °F 47% 29.74 in 10.0 mi NW 10.4 mph 21.9 mph N/A   Clear
11:35 AM 55.4 °F - 33.8 °F 44% 29.74 in 10.0 mi WNW 13.8 mph 24.2 mph N/A   Clear
11:55 AM 57.2 °F - 35.6 °F 44% 29.74 in 10.0 mi NW 12.7 mph 17.3 mph N/A   Clear
12:15 PM 57.2 °F - 35.6 °F 44% 29.74 in 10.0 mi NNW 11.5 mph 17.3 mph N/A   Clear
12:35 PM 57.2 °F - 35.6 °F 44% 29.74 in 10.0 mi WNW 10.4 mph 17.3 mph N/A   Partly Cloudy
12:55 PM 57.2 °F - 35.6 °F 44% 29.74 in 10.0 mi WNW 10.4 mph 18.4 mph N/A   Scattered Clouds
1:15 PM 57.2 °F - 33.8 °F 41% 29.74 in 10.0 mi NW 10.4 mph 23.0 mph N/A   Partly Cloudy
1:35 PM 59.0 °F - 33.8 °F 39% 29.74 in 10.0 mi WNW 15.0 mph 18.4 mph N/A   Clear
1:55 PM 60.8 °F - 35.6 °F 39% 29.74 in 10.0 mi WNW 9.2 mph 18.4 mph N/A   Clear
2:15 PM 60.8 °F - 35.6 °F 39% 29.74 in 10.0 mi WNW 12.7 mph 18.4 mph N/A   Clear
2:35 PM 60.8 °F - 35.6 °F 39% 29.73 in 10.0 mi WNW 8.1 mph 16.1 mph N/A   Clear
2:55 PM 60.8 °F - 35.6 °F 39% 29.74 in 10.0 mi NNW 12.7 mph 17.3 mph N/A   Clear
3:15 PM 60.8 °F - 35.6 °F 39% 29.74 in 10.0 mi WNW 12.7 mph 18.4 mph N/A   Clear
3:35 PM 60.8 °F - 33.8 °F 36% 29.75 in 10.0 mi NW 10.4 mph - N/A   Clear
3:55 PM 59.0 °F - 33.8 °F 39% 29.75 in 10.0 mi NW 12.7 mph 19.6 mph N/A   Clear
4:15 PM 62.6 °F - 35.6 °F 37% 29.75 in 10.0 mi NW 10.4 mph 17.3 mph N/A   Clear
4:35 PM 62.6 °F - 33.8 °F 34% 29.76 in 10.0 mi NW 12.7 mph 18.4 mph N/A   Clear
4:55 PM 59.0 °F - 30.2 °F 34% 29.76 in 10.0 mi WNW 5.8 mph 16.1 mph N/A   Clear
5:15 PM 57.2 °F - 30.2 °F 36% 29.76 in 10.0 mi WNW 8.1 mph - N/A   Clear
5:35 PM 57.2 °F - 30.2 °F 36% 29.76 in 10.0 mi West 4.6 mph - N/A   Clear
5:55 PM 55.4 °F - 32.0 °F 41% 29.76 in 10.0 mi West 4.6 mph - N/A   Clear
6:15 PM 51.8 °F - 33.8 °F 50% 29.76 in 10.0 mi WNW 3.5 mph - N/A   Clear
6:55 PM 46.4 °F - 35.6 °F 66% 29.77 in 10.0 mi Calm Calm - N/A   Clear
7:15 PM 46.4 °F - 35.6 °F 66% 29.78 in 10.0 mi Calm Calm - N/A   Clear
7:35 PM 46.4 °F - 35.6 °F 66% 29.79 in 10.0 mi Calm Calm - N/A   Clear
7:55 PM 44.6 °F - 35.6 °F 71% 29.79 in 10.0 mi Calm Calm - N/A   Clear
8:15 PM 42.8 °F - 33.8 °F 70% 29.80 in 10.0 mi Calm Calm - N/A   Clear
8:35 PM 42.8 °F - 33.8 °F 70% 29.80 in 10.0 mi Calm Calm - N/A   Clear
8:55 PM 42.8 °F - 33.8 °F 70% 29.80 in 10.0 mi Calm Calm - N/A   Clear
9:35 PM 41.0 °F - 33.8 °F 76% 29.80 in 10.0 mi Calm Calm - N/A   Clear
9:55 PM 39.2 °F - 33.8 °F 81% 29.80 in 10.0 mi Calm Calm - N/A   Clear
10:15 PM 39.2 °F - 33.8 °F 81% 29.80 in 10.0 mi Calm Calm - N/A   Clear
10:55 PM 39.2 °F - 33.8 °F 81% 29.80 in 10.0 mi Calm Calm - N/A   Scattered Clouds
11:15 PM 39.2 °F - 33.8 °F 81% 29.80 in 10.0 mi Calm Calm - N/A   Partly Cloudy
11:35 PM 39.2 °F - 33.8 °F 81% 29.80 in 10.0 mi Calm Calm - N/A   Partly Cloudy
11:55 PM 39.2 °F - 33.8 °F 81% 29.80 in 10.0 mi Calm Calm - N/A   Scattered Clouds